Location: LDNL
(36.4545°S, 141.6685°E)
Time: 20:36:55
(UTC+11:00)

Courier 1B Rocket - Pass Details

Date: 30 January 2023
Orbit: 920 x 1202 km, 28.2° (Epoch: 26 March)

Event Time Altitude Azimuth Distance (km) Brightness Sun altitude
Exits shadow 06:32:12 - 321° (NW) 4,085 7.7 -3.5°
Rises 06:32:12 0° 321° (NW) 4,084 7.7 -3.5°
Reaches altitude 10° 06:35:41 10° 334° (NNW) 3,130 7.2 -2.9°
Maximum altitude 06:41:36 24° 23° (NNE) 2,265 7.0 -1.8°
Drops below altitude 10° 06:47:26 10° 73° (ENE) 3,090 8.5 -0.7°
Sets 06:50:50 0° 86° (E) 4,020 9.5 -0.1°
